Tracking 18987 objects as of 25-Feb-2018
HD Live streaming from Space Station
objects crossing your sky now

NOAA 16 DEB

Track NOAA 16 DEB now!
10-day predictions


NORAD ID: 41500
Int'l Code: 2000-055LY
Perigee: 797.0 km
Apogee: 860.6 km
Inclination: 99.0 °
Period: 101.3 minutes
Semi major axis: 7199 km
RCS: Unknown
Launch date: September 21, 2000
Source: United States (US)
Launch site: AIR FORCE WESTERN TEST RANGE (AFWTR)

Note: This is SATELLITE DEBRIS
aabbcc
Your satellite tracking list
Your tracking list is empty




NASA's NSSDC Master Catalog

Two Line Element Set (TLE):
1 41500U 00055LY  18055.50783863  .00000689  00000-0  33552-3 0  9993
2 41500  98.9542 148.7396 0044148 314.1228  45.6320 14.21083771101948
Source of the keplerian elements: AFSPC